Showing default

EUTE 9B, 41310

Orbit data source: Space-Track

EUTE 9B, 41310 is a payload satellite owned by EutelsatSA (FR) in GEO that was launched on Fri, 29 Jan 2016 UTC via a PROTON-M/BRIZ-M launch vehicle from the Tyuratam Missile And Space Complex (TTMTR). Payload-class satellites include a variety of spacecraft equipped with specific instruments for various scientific and technological missions. These include communications satellites like Starlink; space stations such as the ISS; scientific satellites like the Hubble; Earth observation satellites from companies like Planet Labs, Umbra, and HawkEye 360; GPS; miniature CubeSats for education and research; and military/defense satellites.

Not visible in the next 10 days
Identifier
41310, 2016-005A
Orbit
GEO
Country
Flag of UnknownUnknown / EUTE
Related business
Manufacturer
Airbus/Toulouse
Mission
Operational Commercial Communications
Bus & Motor
EUROSTAR 3000, R-4D?
Mass
~5,162 kg wet, ~3,000 kg dry
Launch date (UTC)
2016-01-29 (10 years ago)
Launch vehicle
PROTON-M/BRIZ-M
Launch site
Tyuratam Missile And Space Complex (TTMTR)
Object type
Payload
Rocket body
Debris
Shape & HBR
Box + 2 Pan, 19.5 m
Radar Cross Section
46.485 m², Large (>1 m²)

Expand to show TLE details & history
Last TLE update: 10 hours ago

TLE from 10 hours ago
0 EUTE 9B
1 41310U 16005A   25261.93447597  .00000042  00000-0  00000-0 0  9991
2 41310   0.0422  62.1385 0002372 158.3452 123.0214  1.00270139 35392
Epoch: 2025-09-18T22:25Z
TLE epoch observation values (Epoch: 2025-09-18T22:25:38.723Z)
Latitude
-0.03442°
Longitude
9.02849°
Altitude
35,792.04 km
Speed
3.074 km/s
True Right ascension
22h 54m 06s
True Declination
0° 02' 04"
Sunlit
Object was in daylight at epoch
Visualization orbit readout
Latitude
Unknown
Longitude
Unknown
Altitude
Unknown
Speed
Unknown
Apparent Right ascension
Unknown
Apparent Declination
Unknown
Sunlit
N/A
Visualization observer readout
Local Sidereal Time
01:11:45
Azimuth
Unknown
Elevation
Unknown
Doppler factor
Unknown
Orbital elements
Apogee altitude
35,798.129 km
Perigee altitude
35,778.125 km
Semi-major axis
42,166.264 km
Eccentricity
0.00024
Inclination
0.0422°
RAAN
62.1385°
Arg. of periapsis
158.3452°
True anomaly
123.04419°
Mean anomaly
123.0214°
Eccentric anomaly
123.03279°
Mean motion
0.25067 °/min
Orbital period
1,436.17 mins
BSTAR
0
Loading maneuver chart data...
Computing Atmospheric mass density...
Loading historical data...
Loading historical data...
Loading historical data...
Loading historical data...
Loading historical data...
Loading historical data...
Loading historical data...
Other satellites on launch #5 in the year 2016 (2016-01-29 UTC)

Documentation

Showing up to 5 results
|